COSMOS 1275 DEB, 12733

Orbit data source: Space-Track

COSMOS 1275 DEB, 12733 is space debris in LEO originally from a launch on Thu, 04 Jun 1981 UTC launched from the Plesetsk Missile And Space Complex (PKMTR). Debris objects in space refer to the collection of defunct objects orbiting the Earth. Examples of debris include non-operational satellites, rocket bodies, and fragments generated from explosions, collisions, or faulty payload assembly.

Loading next visibility...
Identifier
12733, 1981-053CA
Orbit
LEO
Country
Flag of CISCIS
Related business
Manufacturer
Unknown
Mission
Spacecraft
Bus & Motor
Unknown
Mass
Unknown
Launch date (UTC)
1981-06-04 (45 years ago)
Launch vehicle
Unknown
Launch site
Plesetsk Missile And Space Complex (PKMTR)
Object type
Payload
Rocket body
Debris
Shape & HBR
Unknown shape, 0.1 m
Radar Cross Section
Small (<0.1 m²)

Expand to show TLE details & history
Last TLE update: 15 hours ago

TLE from 15 hours ago
0 COSMOS 1275 DEB
1 12733U 81053CA  26119.50957086  .00004386  00000-0  14055-2 0  9990
2 12733  82.8527 306.4213 0018817  56.0950 304.2028 14.39265264289481
Epoch: 2026-04-29T12:13Z
TLE epoch observation values (Epoch: 2026-04-29T12:13:46.922Z)
Latitude
-0°
Longitude
-94.49371°
Altitude
756.378 km
Speed
7.48 km/s
True Right ascension
20h 25m 41s
True Declination
0° 00' 00"
Sunlit
Object was in daylight at epoch
Visualization orbit readout
Latitude
Unknown
Longitude
Unknown
Altitude
Unknown
Speed
Unknown
Apparent Right ascension
Unknown
Apparent Declination
Unknown
Sunlit
N/A
Visualization observer readout
Local Sidereal Time
10:28:14
Azimuth
Unknown
Elevation
Unknown
Doppler factor
Unknown
Orbital elements
Apogee altitude
771.419 km
Perigee altitude
744.563 km
Semi-major axis
7,136.128 km
Eccentricity
0.00188
Inclination
82.8527°
RAAN
306.4213°
Arg. of periapsis
56.095°
True anomaly
304.02423°
Mean anomaly
304.2028°
Eccentric anomaly
304.11354°
Mean motion
3.60039 °/min
Orbital period
99.99 mins
BSTAR
0.0014055
Loading maneuver chart data...
Computing Atmospheric mass density...
Loading historical data...
Loading historical data...
Loading historical data...
Loading historical data...
Loading historical data...
Loading historical data...
Loading historical data...

Documentation

Showing up to 5 results
|